Regional Weather Roundup
Issued by NWS Albany, NY

Current Version | Previous Version | Graphics & Text | Print | Product List | Glossary Off
Versions: 1 2 3 4 5 6 7 8 9 10 11 12 13 14 15 16 17 18 19 20 21 22 23 24 25 26 27

000
ASUS41 KALY 190610
RWRALY

NEW YORK STATE HOURLY WEATHER ROUNDUP
NATIONAL WEATHER SERVICE ALBANY NY
200 AM EDT SAT APR 19 2014

NOTE: "FAIR" INDICATES FEW OR NO CLOUDS BELOW 12,000 FEET WITH NO
SIGNIFICANT WEATHER AND/OR NO OBSTRUCTIONS TO VISIBILITY.

NYZ032-033-038>043-046>054-057>066-NYZ062>081-190700-
EAST


CITY           SKY/WX    TMP DP  RH WIND       PRES   REMARKS
ALBANY         MOCLDY    43  27  53 S3        30.20F
GLENS FALLS    FAIR      36  31  82 SW5       30.18F WCI  32
POUGHKEEPSIE   FAIR      39  31  72 SE6       30.22S WCI  35
NEWBURGH       PTCLDY    43  32  65 W6        30.23F
MONTGOMERY     FAIR      37  30  75 SW5       30.22S WCI  33
WHITE PLAINS   FAIR      38  33  82 CALM      30.23F
ISLIP          FAIR      38  34  85 SW5       30.24F WCI  34
NEW YORK CITY  MOCLDY    42  32  67 S7        30.26F
CENTRAL PARK   FAIR      42  32  67 CALM      30.28F
$$

NYZ005>009-017-018-044>046-055-056-190700-
CENTRAL


CITY           SKY/WX    TMP DP  RH WIND       PRES   REMARKS
FULTON         CLOUDY    42  36  79 W7        30.26R
SYRACUSE       CLOUDY    45  39  79 W9        30.26R
ROME           CLOUDY    43  39  86 W12       30.24S
ELMIRA         FAIR      48  36  63 NW3       30.24F
BINGHAMTON     CLOUDY    44  34  67 NW5       30.22R
MONTICELLO     FAIR      34  27  75 CALM      30.22S
$$

NYZ026>034-041>043-190700-
NORTH


CITY           SKY/WX    TMP DP  RH WIND       PRES   REMARKS
WATERTOWN      MOCLDY    40  33  76 W9        30.23R WCI  34
FORT DRUM      NOT AVBL
MASSENA        CLOUDY    42  41  96 SW7       30.17F
SARANAC LAKE   CLOUDY    39  37  92 SW5       30.12S
PLATTSBURGH    CLOUDY    43  29  57 CALM      30.14F
$$

NYZ001>004-010>016-019>021-190700-
WEST


CITY           SKY/WX    TMP DP  RH WIND       PRES   REMARKS
NIAGARA FALLS  FAIR      35  29  78 NW6       30.31R WCI  30
BUFFALO        FAIR      39  31  72 NW6       30.31R WCI  35
DUNKIRK        MOCLDY    36  33  89 CALM      30.32S FOG
JAMESTOWN      FAIR      39  36  87 NW7       30.28F WCI  34
WELLSVILLE     FAIR      39  33  79 W6        30.26F WCI  35
ROCHESTER      FAIR      40  32  73 NW8       30.30R WCI  34
PENN YAN       CLOUDY    46  37  71 NW7       30.26S
$$

             KEY
       WCI = WIND CHILL INDEX
       VSB = VISIBILITY
       HX  = HEAT INDEX
$$



USA.gov is the U.S. government's official web portal to all federal, state and local government web resources and services.